KUIPER-00043

导读 | 豆包AI

KUIPER-00043是美国亚马逊柯伊伯(Kuiper)低轨宽带星座的一颗卫星,于2025年6月23日发射入轨。柯伊伯星座旨在为全球欠发达地区提供低时延高速卫星互联网接入,该卫星是星座组网部署过程中的一员,将参与验证低轨卫星通信技术,推进全球卫星宽带网络的建设,服务全球互联互通需求。

基本信息
目录编号:
64504
目录名称:
KUIPER-00043
国际标识:
2025-134E
轨道中心:
EARTH
卫星名称:
KUIPER-00043
卫星全名:
KUIPER-00043
卫星状态:
在轨 (已飞行264 天)
发射日期:
2025-06-23 UTC
国别 :
美国 (US)
星等 :
--
轨道信息
数据来源 国际轨道数据
星历时间: 2026-03-13T22:00:01+0800
13小时前
查看轨道信息
半长轴: 7007.635km
偏心率: 0.0000708
轨道倾角: 51.900°
近地点辐角 83.817°
升交点赤经 215.812°
平近点角 289.930°
近地点: 629.001km
远地点: 629.995km
周期: 97.301分钟
每日圈数: 14.79945
详细信息
使用方式:
暂无
2D轨道图
3D轨道图
轨道高度分析图
轨道倾角分析图
轨道综合分析图
查看轨道综合分析图